Regional Weather Roundup
Issued by NWS

Home | Current Version | Previous Version | Text Only | Print | Product List | Glossary Off
Versions: 1 2 3 4 5 6 7 8 9 10 11 12 13 14 15 16 17 18 19 20 21 22 23 24 25 26 27 28 29 30 31 32 33 34 35 36 37 38 39 40 41 42 43 44 45 46 47 48 49 50

000
ASUS43 KLOT 220200
RWRIL

ILLINOIS REGIONAL WEATHER ROUNDUP
NATIONAL WEATHER SERVICE CHICAGO/ROMEOVILLE IL
900 PM CDT SUN SEP 21 2014

NOTE: "FAIR" INDICATES FEW OR NO CLOUDS BELOW 12,000 FEET WITH NO
SIGNIFICANT WEATHER AND/OR OBSTRUCTIONS TO VISIBILITY.

* THESE STATIONS ARE NOT UNDER NWS QUALITY CONTROL. THEY ALSO MAY NOT
  REPORT WEATHER SUCH AS PRECIPITATION OR FOG.

ILZ001-002-007-009-015-016-024-220300-
NORTHWEST ILLINOIS

CITY           SKY/WX    TMP DP  RH WIND       PRES   REMARKS
MOLINE         CLEAR     61  48  62 N7        30.15R
STERLING*      CLEAR     55  46  71 N6        30.14R
$$

ILZ003-004-008-010-011-017-018-220300-
NORTH CENTRAL ILLINOIS

CITY           SKY/WX    TMP DP  RH WIND       PRES   REMARKS
ROCKFORD       PTCLDY    53  46  77 CALM      30.15R
FREEPORT*      CLEAR     52  48  84 CALM      30.16R
ROCHELLE*      CLEAR     51  46  82 N3        30.14R
$$

ILZ005-006-012>014-019>023-220300-
NORTHEAST ILLINOIS

CITY           SKY/WX    TMP DP  RH WIND       PRES   REMARKS
CHICAGO-OHARE  PTCLDY    58  48  69 N6        30.12R
CHICAGO-MIDWAY PTCLDY    58  46  64 N12       30.11R
AURORA         CLEAR     52  45  77 NW6       30.12R
LANSING*       PTCLDY    57  47  69 N9        30.11R
WAUKEGAN       CLEAR     48  44  86 NW3       30.11R
DUPAGE AIRPORT PTCLDY    52  45  77 N6        30.11R
WHEELING       CLEAR     54  46  74 CALM      30.14R
NORTHERLY ISL    N/A     57  44  62 N13         N/A
$$

LMZ740>746-220300-
SOUTHERN LAKE MICHIGAN

STATION/POSITION SKY/WX   TEMP    WIND        PRES    VSBY  WAVE
                          AIR SEA DIR/SP/G                  HT/PER
                          (F)     (DEG/KT/KT) (MB)    (MI)  (FT/S)
SOUTHERN BUOY              56 62  350/ 17/ 21 1018.3R         8/ 7
WAUKEGAN HARBOR            54     340/  6/  8   N/A
HARRISON CRIB              58     350/ 22/ 25   N/A
BURNHAM HARBOR             58     330/ 10/ 17   N/A
CALUMET HARBOR             58     340/ 11/ 16 1018.2R
MICHIGAN CITY              57     350/ 24/ 29   N/A
MICHIGAN CITY 6N           58 64   10/ 16/ 23   N/A          10/ 8
ST. JOSEPH                 58 65  360/ 19/ 29   N/A           8/ 7
$$

ILZ025>027-034>036-040-047-049-050-058-095>099-220300-
WEST-CENTRAL ILLINOIS

CITY           SKY/WX    TMP DP  RH WIND       PRES   REMARKS
QUINCY         CLEAR     56  49  77 N6        30.17R
GALESBURG*     MOCLDY    56  52  87 W5        30.15R
MACOMB*        CLEAR     51  50  95 W6        30.18R
$$

ILZ028>032-037-038-041>044-048-051>054-059>061-220300-
CENTRAL ILLINOIS

CITY           SKY/WX    TMP DP  RH WIND       PRES   REMARKS
DECATUR        CLEAR     60  51  72 NW10G21   30.13R
PEORIA         CLEAR     58  51  78 NW5       30.14R
SPRINGFIELD    CLEAR     59  51  75 NW7       30.14R
TAYLORVILLE    NOT AVBL
$$

ILZ033-039-045-046-055>057-062-063-220300-
EAST-CENTRAL ILLINOIS

CITY           SKY/WX    TMP DP  RH WIND       PRES   REMARKS
CHAMPAIGN      CLEAR     56  51  84 NW8       30.10R
MATTOON        CLEAR     54  49  83 NW5       30.10R
$$

ILZ079-100>102-220300-
SOUTHWEST ILLINOIS

CITY           SKY/WX    TMP DP  RH WIND       PRES   REMARKS
BELLEVILLE     CLEAR     63  51  64 W6        30.11R
CAHOKIA*       CLEAR     65  51  60 N8        30.12R
SPARTA*        CLEAR     64  50  60 N6        30.11R
$$

ILZ064>066-069>071-074>076-080>082-084>086-088>090-092>094-220300-
SOUTH-CENTRAL ILLINOIS

CITY           SKY/WX    TMP DP  RH WIND       PRES   REMARKS
CARBONDALE     CLEAR     63  50  62 N7        30.09R
MT. VERNON     CLEAR     63  48  59 N3        30.10R
$$

ILZ067-068-072-073-078-083-087-091-220300-
SOUTHEAST ILLINOIS

CITY           SKY/WX    TMP DP  RH WIND       PRES   REMARKS
LAWRENCEVILLE  CLEAR     58  51  78 N7        30.08R
ROBINSON*      CLEAR     60  53  76 N6        30.09R
$$

ABBREVIATIONS USED IN REMARKS
   TC - TEMPERATURE IN CELSIUS
  WCI - WIND CHILL INDEX
   HX - HEAT INDEX
  VSB - VISIBILITY
$$




USA.gov is the U.S. government's official web portal to all federal, state and local government web resources and services.